Regional Weather Roundup
Issued by NWS

Home | Current Version | Previous Version | Graphics & Text | Print | Product List | Glossary On
Versions: 1 2 3 4 5 6 7 8 9 10 11 12 13 14 15 16 17 18 19 20 21 22 23 24 25 26 27 28 29 30 31 32 33 34 35 36 37 38 39 40 41 42 43 44 45 46 47 48 49 50
000
ASUS45 KSLC 200310
RWRUT

UTAH REGIONAL WEATHER ROUNDUP
NATIONAL WEATHER SERVICE SALT LAKE CITY UT
800 PM MST FRI DEC 19 2014

UTZ001>011-023>025-200400-

NORTHERN UTAH

CITY           SKY/WX    TMP DP  RH WIND       PRES   REMARKS
BRIGHAM CITY   CLOUDY    40  30  68 N6        30.13S
HILL AFB       MOCLDY    41  25  52 S10       30.12R
LOGAN          CLOUDY    39  30  70 NW8       30.13R WCI  33
OGDEN          CLOUDY    42  26  53 S7        30.11R
PROVO AIRPORT  MOCLDY    37  27  65 SE7       30.13S WCI  32
SALT LAKE CITY CLOUDY    41  26  55 NW6       30.12R
VERNAL         CLOUDY    29  22  75 CALM      30.21R
WENDOVER       CLOUDY    37  28  70 S6        30.13S WCI  33
HEBER CITY     CLOUDY    34  23  64 CALM      30.11S
WEST JORDAN    CLOUDY    39  30  70 SW8       30.11R WCI  34

$$

UTZ012>022-026-027-200400-

SOUTHERN/CENTRAL UTAH

CITY           SKY/WX    TMP DP  RH WIND       PRES   REMARKS
BLANDING       CLEAR     28  27  99 N8        30.27F WCI  19
BRYCE CANYON   PTCLDY    18  16  92 CALM      30.20R
CEDAR CITY     CLOUDY    35  27  72 S8        30.15F WCI  29
DELTA          CLOUDY    38  26  61 S9        30.12S WCI  31
MILFORD        MOCLDY    37  27  67 S18       30.13S WCI  27
MOAB/CYNLANDS  CLEAR     32  29  88 CALM      30.20F
PRICE          CLOUDY    29  24  82 CALM      30.20S
ST GEORGE      CLOUDY    43  34  70 SE7       30.21S
KANAB          MOCLDY    32  30  93 NE5       30.24R WCI  27

$$

REGIONAL REPORTS     COLORADO/ARIZONA

CITY           SKY/WX    TMP DP  RH WIND       PRES   REMARKS
CRAIG, CO      PTCLDY    13  11  92 SE3       30.18S
GRAND JUNCTION PTCLDY    29  27  92 N3        30.21S
RIFLE          PTCLDY    29  23  78 SE8       30.21F WCI  21
MONTROSE       MOCLDY    31  25  78 S6        30.22S WCI  25
CORTEZ         CLEAR     28  26  92 N3        30.21R
PAGE, AZ       CLEAR     39  30  70 CALM      30.21R
GRAND CANYON   PTCLDY    26  23  88 CALM      30.21F
KINGMAN        MOCLDY    41  34  76 SE10      30.17F
FLAGSTAFF      MOCLDY    26  23  88 CALM      30.22S

$$

REGIONAL REPORTS    NEVADA/IDAHO/WYOMING

CITY           SKY/WX    TMP DP  RH WIND       PRES   REMARKS
LAS VEGAS, NV  CLOUDY    52  40  63 CALM      30.14F
ELY            CLOUDY    35  28  75 W3        30.14S
ELKO           LGT SNOW  33  32  96 S5        30.14R FOG     WCI  29
POCATELLO, ID  CLOUDY    35  33  92 W9        30.09S WCI  28
BURLEY         LGT RAIN  37  34  89 S8        30.08S WCI  31
EVANSTON, WY   MOCLDY    30  21  69 W3        30.09R
ROCK SPRINGS   CLOUDY    29  22  75 SW6       30.08S WCI  23
KEMMERER       CLOUDY    30  23  74 CALM      30.08S

$$


USA.gov is the U.S. government's official web portal to all federal, state and local government web resources and services.